Location: Ocean City
(38.3360°N, 75.0850°W)
Time: 06:56:17
(UTC-04:00)

N. Korean satellite - Visible Passes

Search period start: 23 October 2019 00:00
Search period end: 02 November 2019 00:00
Orbit: 455 x 508 km, 97.2° (Epoch: 22 October)

Date Brightness Start Highest point End Pass type
(mag) Time Alt. Az. Time Alt. Az. Time Alt. Az.
23 Oct 10.3 05:53:13 10° ENE 05:54:55 13° E 05:56:36 10° ESE visible
24 Oct 10.0 19:08:25 10° SW 19:10:20 14° W 19:12:15 10° WNW visible
25 Oct 8.0 06:34:20 10° NNE 06:37:52 45° E 06:41:25 10° S visible
25 Oct 8.8 18:41:49 10° SSW 18:44:52 30° W 18:47:58 10° NNW visible
26 Oct 9.6 06:09:36 10° NE 06:12:28 21° E 06:15:20 10° SE visible
27 Oct 10.6 05:46:29 10° E 05:47:00 10° E 05:47:30 10° E visible
28 Oct 6.8 06:51:38 10° NNE 06:55:20 81° ESE 06:59:02 10° S visible
28 Oct 9.8 18:59:56 10° SW 19:02:22 18° W 19:04:49 10° NW visible
29 Oct 8.5 06:26:33 10° NNE 06:29:59 35° E 06:33:24 10° SSE visible
29 Oct 8.2 18:33:41 10° SSW 18:36:55 39° W 18:40:14 10° NNW visible
30 Oct 9.9 06:02:02 10° NE 06:04:33 17° E 06:07:04 10° SE visible
31 Oct 10.4 19:19:04 10° WSW 19:19:53 11° W 19:20:42 10° WNW visible
01 Nov 7.2 06:43:44 10° NNE 06:47:25 63° E 06:51:06 10° S visible
01 Nov 9.4 18:51:35 10° SSW 18:54:22 23° W 18:57:13 10° NW visible
